EJU64CX LEBB-LIMC

Flight info

Callsign EJU64CX
Flight time 1h 34m
Altitude 30000
Route PPN DCT LATEK/N0456F360 DCT GONUP DCT TOU DCT GAI DCT MEN DCT NINUN DCT LATAM DCT ROMAM/N0454F370 DCT ETIDO DCT NEDRU DCT RILIP DCT EMMEF DCT LAPRI/N0451F360 DCT MOGBO/N0449F370 DCT KODOK/N0376F190 M730 TOP M135 ASTIG
Aircraft A20N/M-SDE2E3FGHIRWXY/LB1

Departure

Time 2026-05-05 18:02
Airport Bilbao Airport (LEBB)

Arrival

Time 2026-05-05 19:36
Airport Milan Malpensa International Airport (LIMC)
Time Latitude Longitude Altitude Speed Heading
2026-05-05 17:47 43.30480 -2.90892 152 ft 0 kts 358°
2026-05-05 17:53 43.30474 -2.90891 151 ft 2 kts 358°
2026-05-05 17:54 43.30458 -2.90891 150 ft 2 kts 358°
2026-05-05 17:54 43.30441 -2.90890 149 ft 2 kts 358°
2026-05-05 17:54 43.30424 -2.90889 148 ft 2 kts 358°
2026-05-05 17:54 43.30409 -2.90881 147 ft 2 kts 292°
2026-05-05 17:55 43.30407 -2.90858 148 ft 2 kts 269°
2026-05-05 17:55 43.30407 -2.90843 148 ft 1 kts 268°
2026-05-05 17:55 43.30407 -2.90841 148 ft 0 kts 268°
2026-05-05 17:57 43.30407 -2.90842 148 ft 1 kts 268°
2026-05-05 17:57 43.30407 -2.90875 147 ft 6 kts 268°
2026-05-05 17:57 43.30404 -2.90942 145 ft 9 kts 262°
2026-05-05 17:58 43.30351 -2.91007 139 ft 14 kts 205°
2026-05-05 17:58 43.30264 -2.90974 136 ft 15 kts 119°
2026-05-05 17:58 43.30219 -2.90851 135 ft 14 kts 117°
2026-05-05 17:58 43.30175 -2.90731 136 ft 13 kts 116°
2026-05-05 17:59 43.30139 -2.90630 139 ft 10 kts 116°
2026-05-05 17:59 43.30106 -2.90543 140 ft 12 kts 117°
2026-05-05 17:59 43.30054 -2.90400 141 ft 24 kts 117°
2026-05-05 17:59 43.29989 -2.90226 143 ft 20 kts 116°
2026-05-05 18:00 43.29929 -2.90058 143 ft 19 kts 116°
2026-05-05 18:00 43.29872 -2.89904 143 ft 18 kts 117°
2026-05-05 18:00 43.29814 -2.89747 142 ft 18 kts 116°
2026-05-05 18:00 43.29757 -2.89600 143 ft 15 kts 136°
2026-05-05 18:01 43.29676 -2.89647 141 ft 15 kts 231°
2026-05-05 18:01 43.29645 -2.89777 140 ft 15 kts 282°
2026-05-05 18:01 43.29687 -2.89907 140 ft 19 kts 296°
2026-05-05 18:01 43.29828 -2.90293 140 ft 77 kts 296°
2026-05-05 18:02 43.30170 -2.91224 133 ft 139 kts 296°
2026-05-05 18:02 43.30634 -2.92482 599 ft 145 kts 295°
2026-05-05 18:02 43.31082 -2.93686 1357 ft 139 kts 296°
2026-05-05 18:02 43.31520 -2.94885 2015 ft 148 kts 295°
2026-05-05 18:03 43.32024 -2.96272 2415 ft 179 kts 296°
2026-05-05 18:03 43.32722 -2.97809 2904 ft 201 kts 310°
2026-05-05 18:03 43.33742 -2.99219 3675 ft 212 kts 316°
2026-05-05 18:03 43.34836 -3.00574 4667 ft 212 kts 317°
2026-05-05 18:04 43.35926 -3.01911 5465 ft 208 kts 317°
2026-05-05 18:04 43.37003 -3.03238 6139 ft 211 kts 316°
2026-05-05 18:04 43.38120 -3.04624 6815 ft 220 kts 316°
2026-05-05 18:04 43.39270 -3.06006 7472 ft 223 kts 323°
2026-05-05 18:05 43.40756 -3.06646 8171 ft 234 kts
2026-05-05 18:05 43.42301 -3.05816 8862 ft 251 kts 38°
2026-05-05 18:05 43.43249 -3.03756 9585 ft 265 kts 74°
2026-05-05 18:05 43.43448 -3.01206 10274 ft 273 kts 81°
2026-05-05 18:06 43.44066 -2.98785 10923 ft 267 kts 49°
2026-05-05 18:06 43.44948 -2.97640 11393 ft 262 kts 31°
2026-05-05 18:06 43.47036 -2.95875 12314 ft 269 kts 28°
2026-05-05 18:06 43.48614 -2.94439 13024 ft 274 kts 31°
2026-05-05 18:07 43.50160 -2.92861 13752 ft 278 kts 34°
2026-05-05 18:07 43.51618 -2.91071 14401 ft 285 kts 52°
2026-05-05 18:07 43.52329 -2.88516 15075 ft 293 kts 85°
2026-05-05 18:07 43.52058 -2.85722 15774 ft 297 kts 103°
2026-05-05 18:08 43.51506 -2.82964 16479 ft 300 kts 105°
2026-05-05 18:08 43.50898 -2.80196 17186 ft 302 kts 107°
2026-05-05 18:08 43.50468 -2.77402 17908 ft 302 kts 94°
2026-05-05 18:08 43.50300 -2.74508 18612 ft 302 kts 91°
2026-05-05 18:09 43.50227 -2.71608 19270 ft 302 kts 89°
2026-05-05 18:09 43.50214 -2.68719 19940 ft 301 kts 88°
2026-05-05 18:09 43.50230 -2.65840 20624 ft 299 kts 88°
2026-05-05 18:09 43.50255 -2.62985 21323 ft 295 kts 88°
2026-05-05 18:10 43.50278 -2.60215 22030 ft 290 kts 88°
2026-05-05 18:10 43.50295 -2.57477 22761 ft 281 kts 88°
2026-05-05 18:10 43.50306 -2.54831 23489 ft 270 kts 88°
2026-05-05 18:10 43.50313 -2.52263 23860 ft 270 kts 89°
2026-05-05 18:11 43.50319 -2.49630 23982 ft 279 kts 89°
2026-05-05 18:11 43.50324 -2.46899 24114 ft 289 kts 89°
2026-05-05 18:11 43.50327 -2.44122 24251 ft 299 kts 89°
2026-05-05 18:11 43.50329 -2.41189 24401 ft 311 kts 89°
2026-05-05 18:12 43.50330 -2.38144 24561 ft 322 kts 89°
2026-05-05 18:12 43.50329 -2.34993 24738 ft 334 kts 90°
2026-05-05 18:12 43.50328 -2.31736 24891 ft 346 kts 90°
2026-05-05 18:12 43.50326 -2.28403 24988 ft 360 kts 90°
2026-05-05 18:13 43.50322 -2.24871 24993 ft 377 kts 90°
2026-05-05 18:13 43.50318 -2.21176 24994 ft 394 kts 90°
2026-05-05 18:13 43.50312 -2.17298 24994 ft 410 kts 90°
2026-05-05 18:13 43.50304 -2.13353 24991 ft 425 kts 90°
2026-05-05 18:14 43.50295 -2.09210 24990 ft 440 kts 90°
2026-05-05 18:14 43.50284 -2.04928 25042 ft 452 kts 90°
2026-05-05 18:14 43.50271 -2.00551 25234 ft 460 kts 90°
2026-05-05 18:14 43.50257 -1.96118 25576 ft 464 kts 91°
2026-05-05 18:15 43.50241 -1.91691 25961 ft 467 kts 91°
2026-05-05 18:15 43.50223 -1.87191 26343 ft 469 kts 91°
2026-05-05 18:15 43.50203 -1.82699 26727 ft 471 kts 91°
2026-05-05 18:15 43.50181 -1.78138 27101 ft 474 kts 91°
2026-05-05 18:16 43.50157 -1.73641 27455 ft 476 kts 91°
2026-05-05 18:16 43.50132 -1.69059 27799 ft 478 kts 91°
2026-05-05 18:16 43.50104 -1.64459 28131 ft 481 kts 91°
2026-05-05 18:16 43.50074 -1.59852 28483 ft 483 kts 91°
2026-05-05 18:17 43.50053 -1.56765 28796 ft 482 kts 91°
2026-05-05 18:17 43.50009 -1.50660 29442 ft 480 kts 91°
2026-05-05 18:17 43.49974 -1.46051 29878 ft 480 kts 92°
2026-05-05 18:18 43.49912 -1.38395 29992 ft 478 kts 92°
2026-05-05 18:18 43.49830 -1.29222 29991 ft 476 kts 92°
2026-05-05 18:19 43.49741 -1.20109 29974 ft 476 kts 92°
2026-05-05 18:19 43.49645 -1.11024 29972 ft 476 kts 92°
2026-05-05 18:20 43.49541 -1.01908 29967 ft 482 kts 92°
2026-05-05 18:20 43.49425 -0.92520 29969 ft 493 kts 93°
2026-05-05 18:21 43.49304 -0.83099 29969 ft 494 kts 93°
2026-05-05 18:21 43.49175 -0.73637 29966 ft 494 kts 93°
2026-05-05 18:22 43.49038 -0.64167 29970 ft 495 kts 93°
2026-05-05 18:22 43.48891 -0.54667 29965 ft 495 kts 93°
2026-05-05 18:23 43.48738 -0.45256 29964 ft 495 kts 93°
2026-05-05 18:23 43.48576 -0.35777 29969 ft 495 kts 94°
2026-05-05 18:24 43.48406 -0.26285 29968 ft 494 kts 94°
2026-05-05 18:24 43.48229 -0.16812 29964 ft 494 kts 94°
2026-05-05 18:25 43.48045 -0.07390 29972 ft 494 kts 94°
2026-05-05 18:25 43.47853 0.02050 29981 ft 493 kts 94°
2026-05-05 18:26 43.47653 0.11494 29977 ft 493 kts 94°
2026-05-05 18:26 43.47445 0.20920 29979 ft 493 kts 94°
2026-05-05 18:27 43.47230 0.30308 29973 ft 492 kts 94°
2026-05-05 18:27 43.47007 0.39750 29972 ft 492 kts 95°
2026-05-05 18:28 43.46658 0.53896 29965 ft 492 kts 95°
2026-05-05 18:28 43.46416 0.63275 29967 ft 493 kts 95°
2026-05-05 18:29 43.46166 0.72711 29971 ft 493 kts 95°
2026-05-05 18:29 43.46313 0.77464 29961 ft 498 kts 81°
2026-05-05 18:29 43.47359 0.82021 29971 ft 501 kts 66°
2026-05-05 18:30 43.50958 0.90211 29964 ft 503 kts 56°
2026-05-05 18:30 43.54825 0.98270 29963 ft 503 kts 59°
2026-05-05 18:31 43.58387 1.06511 29963 ft 502 kts 61°
2026-05-05 18:31 43.61787 1.14960 29961 ft 502 kts 62°
2026-05-05 18:32 43.65135 1.23451 29965 ft 502 kts 63°
2026-05-05 18:32 43.68531 1.31823 29965 ft 502 kts 58°
2026-05-05 18:33 43.72544 1.39738 29964 ft 502 kts 54°
2026-05-05 18:33 43.76757 1.47405 29965 ft 502 kts 53°
2026-05-05 18:34 43.80969 1.55138 29964 ft 502 kts 54°
2026-05-05 18:34 43.85125 1.62912 29955 ft 502 kts 54°
2026-05-05 18:35 43.89263 1.70732 29949 ft 502 kts 55°
2026-05-05 18:35 43.93390 1.78559 29952 ft 502 kts 55°
2026-05-05 18:36 43.97447 1.86383 29950 ft 502 kts 56°
2026-05-05 18:36 44.01432 1.94378 29951 ft 503 kts 57°
2026-05-05 18:37 44.05372 2.02351 29948 ft 503 kts 57°
2026-05-05 18:37 44.09338 2.10371 29945 ft 503 kts 57°
2026-05-05 18:38 44.13289 2.18360 29948 ft 504 kts 57°
2026-05-05 18:38 44.17228 2.26445 29944 ft 504 kts 58°
2026-05-05 18:39 44.21068 2.34651 29942 ft 504 kts 59°
2026-05-05 18:39 44.22981 2.38772 30105 ft 506 kts 59°
2026-05-05 18:39 44.24872 2.42845 30454 ft 505 kts 59°
2026-05-05 18:40 44.26786 2.46961 30815 ft 505 kts 59°
2026-05-05 18:40 44.28704 2.51082 31115 ft 505 kts 59°
2026-05-05 18:40 44.30627 2.55215 31395 ft 505 kts 59°
2026-05-05 18:40 44.32542 2.59330 31692 ft 506 kts 59°
2026-05-05 18:41 44.34444 2.63424 31975 ft 507 kts 59°
2026-05-05 18:41 44.36359 2.67550 32255 ft 507 kts 59°
2026-05-05 18:41 44.38280 2.71695 32538 ft 507 kts 59°
2026-05-05 18:41 44.40195 2.75835 32806 ft 508 kts 59°
2026-05-05 18:42 44.42117 2.79996 33087 ft 508 kts 58°
2026-05-05 18:42 44.44031 2.84146 33378 ft 508 kts 58°
2026-05-05 18:42 44.45945 2.88300 33656 ft 508 kts 58°
2026-05-05 18:42 44.47863 2.92472 33902 ft 509 kts 58°
2026-05-05 18:43 44.51699 3.00831 33928 ft 510 kts 58°
2026-05-05 18:43 44.55526 3.09194 33926 ft 510 kts 58°
2026-05-05 18:44 44.59351 3.17577 33929 ft 510 kts 58°
2026-05-05 18:44 44.63152 3.25933 33920 ft 510 kts 58°
2026-05-05 18:45 44.66979 3.34371 33918 ft 510 kts 58°
2026-05-05 18:45 44.70768 3.42750 33918 ft 511 kts 58°
2026-05-05 18:46 44.74580 3.51203 33912 ft 511 kts 59°
2026-05-05 18:46 44.77621 3.60176 33914 ft 507 kts 73°
2026-05-05 18:47 44.79602 3.69637 33912 ft 506 kts 78°
2026-05-05 18:47 44.81298 3.79264 33909 ft 506 kts 79°
2026-05-05 18:48 44.82972 3.88913 33903 ft 507 kts 78°
2026-05-05 18:48 44.84673 3.98544 33897 ft 507 kts 78°
2026-05-05 18:49 44.86387 4.08169 33894 ft 508 kts 78°
2026-05-05 18:49 44.88051 4.17533 33897 ft 508 kts 79°
2026-05-05 18:50 44.89766 4.27243 33887 ft 509 kts 79°
2026-05-05 18:50 44.91467 4.36933 33883 ft 509 kts 79°
2026-05-05 18:51 44.93162 4.46645 33880 ft 510 kts 79°
2026-05-05 18:51 44.94841 4.56313 33888 ft 509 kts 79°
2026-05-05 18:52 44.96521 4.66042 33897 ft 510 kts 79°
2026-05-05 18:52 44.98185 4.75735 33901 ft 511 kts 80°
2026-05-05 18:53 44.99855 4.85519 33907 ft 511 kts 80°
2026-05-05 18:53 45.01516 4.95299 33907 ft 513 kts 80°
2026-05-05 18:54 45.03174 5.05120 33906 ft 514 kts 80°
2026-05-05 18:54 45.04833 5.14998 33897 ft 516 kts 81°
2026-05-05 18:55 45.06452 5.24699 33912 ft 517 kts 81°
2026-05-05 18:55 45.08107 5.34669 33897 ft 519 kts 81°
2026-05-05 18:56 45.09317 5.44699 33897 ft 512 kts 94°
2026-05-05 18:56 45.09034 5.54664 33881 ft 509 kts 100°
2026-05-05 18:57 45.08417 5.64673 33895 ft 511 kts 101°
2026-05-05 18:57 45.07889 5.74740 33891 ft 512 kts 99°
2026-05-05 18:58 45.07420 5.84802 33890 ft 512 kts 100°
2026-05-05 18:58 45.06782 5.94823 33892 ft 511 kts 101°
2026-05-05 18:59 45.06111 6.04760 33891 ft 511 kts 101°
2026-05-05 18:59 45.05435 6.14772 33892 ft 511 kts 102°
2026-05-05 19:00 45.04746 6.24801 33892 ft 511 kts 102°
2026-05-05 19:00 45.04049 6.34750 33894 ft 511 kts 102°
2026-05-05 19:01 45.03423 6.43549 33874 ft 511 kts 102°
2026-05-05 19:01 45.02706 6.53566 33488 ft 510 kts 102°
2026-05-05 19:02 45.02345 6.58557 33077 ft 511 kts 102°
2026-05-05 19:02 45.01981 6.63552 32549 ft 511 kts 102°
2026-05-05 19:02 45.01613 6.68568 32024 ft 510 kts 102°
2026-05-05 19:02 45.01248 6.73541 31516 ft 508 kts 102°
2026-05-05 19:03 45.01005 6.76832 31162 ft 507 kts 102°
2026-05-05 19:03 45.00516 6.83404 30532 ft 507 kts 102°
2026-05-05 19:03 45.00144 6.88365 30038 ft 506 kts 101°
2026-05-05 19:03 44.99771 6.93309 29479 ft 504 kts 101°
2026-05-05 19:04 44.99527 6.96533 29110 ft 501 kts 101°
2026-05-05 19:04 44.99157 7.01433 28559 ft 496 kts 101°
2026-05-05 19:04 44.98671 7.07835 27841 ft 489 kts 101°
2026-05-05 19:04 44.98424 7.11052 27482 ft 486 kts 101°
2026-05-05 19:05 44.98092 7.15781 26953 ft 482 kts 98°
2026-05-05 19:05 44.97949 7.20501 26446 ft 480 kts 95°
2026-05-05 19:05 44.97916 7.25128 25937 ft 475 kts 96°
2026-05-05 19:05 44.97782 7.29807 25436 ft 469 kts 97°
2026-05-05 19:06 44.97619 7.34353 24953 ft 466 kts 97°
2026-05-05 19:06 44.97455 7.38919 24475 ft 463 kts 97°
2026-05-05 19:06 44.97300 7.43408 24001 ft 449 kts 97°
2026-05-05 19:06 44.97155 7.47752 23539 ft 433 kts 97°
2026-05-05 19:07 44.97016 7.51930 22994 ft 418 kts 97°
2026-05-05 19:07 44.96881 7.55926 22462 ft 406 kts 97°
2026-05-05 19:07 44.96747 7.59851 21941 ft 394 kts 97°
2026-05-05 19:07 44.96616 7.63659 21418 ft 383 kts 97°
2026-05-05 19:08 44.96486 7.67379 20904 ft 374 kts 97°
2026-05-05 19:08 44.96359 7.71000 20401 ft 366 kts 97°
2026-05-05 19:08 44.96233 7.74568 19905 ft 360 kts 97°
2026-05-05 19:08 44.96106 7.78086 19414 ft 357 kts 97°
2026-05-05 19:09 44.95979 7.81580 18934 ft 355 kts 97°
2026-05-05 19:09 44.95853 7.85048 18459 ft 353 kts 97°
2026-05-05 19:09 44.95727 7.88498 17950 ft 351 kts 97°
2026-05-05 19:09 44.95602 7.91879 17415 ft 348 kts 97°
2026-05-05 19:10 44.95477 7.95277 16901 ft 345 kts 97°
2026-05-05 19:10 44.95349 7.98689 16367 ft 342 kts 97°
2026-05-05 19:10 44.95226 8.01980 15865 ft 339 kts 97°
2026-05-05 19:10 44.95100 8.05292 15366 ft 335 kts 96°
2026-05-05 19:11 44.94975 8.08559 14876 ft 333 kts 96°
2026-05-05 19:11 44.94850 8.11821 14388 ft 330 kts 96°
2026-05-05 19:11 44.94725 8.15045 13913 ft 327 kts 96°
2026-05-05 19:11 44.94601 8.18238 13401 ft 324 kts 96°
2026-05-05 19:12 44.94478 8.21396 12867 ft 321 kts 96°
2026-05-05 19:12 44.94354 8.24526 12348 ft 317 kts 96°
2026-05-05 19:12 44.94227 8.27578 11847 ft 313 kts 97°
2026-05-05 19:12 44.94299 8.30625 11336 ft 312 kts 77°
2026-05-05 19:13 44.94870 8.33409 10871 ft 309 kts 75°
2026-05-05 19:13 44.95500 8.36318 10383 ft 308 kts 74°
2026-05-05 19:13 44.96120 8.39177 10040 ft 299 kts 75°
2026-05-05 19:13 44.96694 8.41900 9964 ft 281 kts 75°
2026-05-05 19:14 44.97238 8.44541 9964 ft 278 kts 75°
2026-05-05 19:14 44.97768 8.47166 9957 ft 278 kts 76°
2026-05-05 19:14 44.98287 8.49762 9961 ft 278 kts 76°
2026-05-05 19:14 44.98811 8.52397 9959 ft 278 kts 76°
2026-05-05 19:15 44.99334 8.55038 9960 ft 279 kts 76°
2026-05-05 19:15 44.99926 8.57650 9952 ft 279 kts 63°
2026-05-05 19:15 45.01223 8.59633 9963 ft 277 kts 28°
2026-05-05 19:15 45.03053 8.60272 9963 ft 272 kts 353°
2026-05-05 19:16 45.04840 8.59472 9970 ft 270 kts 331°
2026-05-05 19:16 45.06516 8.58320 9959 ft 273 kts 333°
2026-05-05 19:16 45.08288 8.57317 9958 ft 275 kts 338°
2026-05-05 19:16 45.10097 8.56511 9963 ft 268 kts 342°
2026-05-05 19:17 45.11888 8.55845 9964 ft 265 kts 344°
2026-05-05 19:17 45.13684 8.55251 9963 ft 264 kts 345°
2026-05-05 19:17 45.15540 8.54678 9928 ft 286 kts 346°
2026-05-05 19:17 45.17521 8.54094 9665 ft 297 kts 346°
2026-05-05 19:18 45.19490 8.53533 9370 ft 297 kts 347°
2026-05-05 19:18 45.21513 8.52966 9035 ft 295 kts 347°
2026-05-05 19:18 45.23519 8.52407 8701 ft 294 kts 347°
2026-05-05 19:18 45.25530 8.51847 8373 ft 293 kts 347°
2026-05-05 19:19 45.27517 8.51295 8045 ft 292 kts 347°
2026-05-05 19:19 45.29509 8.50741 7720 ft 290 kts 347°
2026-05-05 19:19 45.31485 8.50215 7402 ft 289 kts 353°
2026-05-05 19:19 45.33454 8.50616 7077 ft 287 kts 25°
2026-05-05 19:20 45.34977 8.52376 6774 ft 283 kts 51°
2026-05-05 19:20 45.36154 8.54574 6455 ft 283 kts 61°
2026-05-05 19:20 45.36810 8.57170 6130 ft 278 kts 86°
2026-05-05 19:20 45.36600 8.59843 6035 ft 272 kts 111°
2026-05-05 19:21 45.35533 8.61983 6030 ft 266 kts 145°
2026-05-05 19:21 45.33927 8.63290 6029 ft 266 kts 155°
2026-05-05 19:21 45.32257 8.64418 6025 ft 266 kts 156°
2026-05-05 19:21 45.30593 8.65580 6025 ft 266 kts 155°
2026-05-05 19:22 45.28936 8.66793 6007 ft 267 kts 154°
2026-05-05 19:22 45.27311 8.68001 5731 ft 266 kts 156°
2026-05-05 19:22 45.25543 8.68717 5399 ft 264 kts 168°
2026-05-05 19:22 45.23751 8.69234 5075 ft 262 kts 170°
2026-05-05 19:23 45.21959 8.69706 4739 ft 261 kts 170°
2026-05-05 19:23 45.20168 8.70177 4405 ft 260 kts 170°
2026-05-05 19:23 45.18385 8.70654 4084 ft 259 kts 169°
2026-05-05 19:23 45.16626 8.71130 3996 ft 251 kts 169°
2026-05-05 19:24 45.15013 8.71570 3999 ft 230 kts 169°
2026-05-05 19:24 45.13440 8.72000 4002 ft 226 kts 169°
2026-05-05 19:24 45.11917 8.72566 3993 ft 228 kts 153°
2026-05-05 19:24 45.10771 8.74031 4000 ft 228 kts 121°
2026-05-05 19:25 45.10339 8.76191 4005 ft 232 kts 93°
2026-05-05 19:25 45.10444 8.78484 3999 ft 235 kts 85°
2026-05-05 19:25 45.10667 8.80786 4002 ft 236 kts 83°
2026-05-05 19:25 45.10905 8.83093 4001 ft 236 kts 83°
2026-05-05 19:26 45.11406 8.85263 3994 ft 236 kts 57°
2026-05-05 19:26 45.12581 8.86731 4026 ft 221 kts 24°
2026-05-05 19:26 45.14064 8.87091 4023 ft 218 kts 357°
2026-05-05 19:26 45.15578 8.86851 4000 ft 219 kts 348°
2026-05-05 19:27 45.17069 8.86386 3999 ft 219 kts 346°
2026-05-05 19:27 45.18336 8.85958 4002 ft 219 kts 347°
2026-05-05 19:27 45.19337 8.85663 4002 ft 219 kts 348°
2026-05-05 19:27 45.20802 8.85076 3998 ft 218 kts 333°
2026-05-05 19:28 45.22243 8.84434 4003 ft 219 kts 351°
2026-05-05 19:28 45.23728 8.84087 3999 ft 219 kts 349°
2026-05-05 19:28 45.25223 8.83695 4028 ft 219 kts 349°
2026-05-05 19:28 45.26727 8.83307 4012 ft 219 kts 349°
2026-05-05 19:29 45.28226 8.82925 4021 ft 219 kts 349°
2026-05-05 19:29 45.29731 8.82538 4024 ft 219 kts 349°
2026-05-05 19:29 45.31230 8.82139 4030 ft 219 kts 348°
2026-05-05 19:29 45.32725 8.81722 4040 ft 219 kts 348°
2026-05-05 19:30 45.34219 8.81303 4047 ft 218 kts 348°
2026-05-05 19:30 45.35693 8.80895 4050 ft 218 kts 348°
2026-05-05 19:30 45.37179 8.80488 4051 ft 212 kts 349°
2026-05-05 19:30 45.38563 8.80108 4049 ft 194 kts 349°
2026-05-05 19:31 45.39864 8.79750 4058 ft 188 kts 349°
2026-05-05 19:31 45.41143 8.79398 4068 ft 187 kts 349°
2026-05-05 19:31 45.42424 8.79046 4073 ft 188 kts 349°
2026-05-05 19:31 45.43714 8.78691 4074 ft 188 kts 349°
2026-05-05 19:32 45.44795 8.78393 4086 ft 188 kts 349°
2026-05-05 19:32 45.45997 8.78061 3939 ft 188 kts 349°
2026-05-05 19:32 45.47282 8.77707 3667 ft 187 kts 349°
2026-05-05 19:32 45.48560 8.77354 3402 ft 186 kts 349°
2026-05-05 19:33 45.49811 8.77009 3185 ft 180 kts 349°
2026-05-05 19:33 45.51033 8.76671 2909 ft 180 kts 350°
2026-05-05 19:33 45.52266 8.76331 2659 ft 180 kts 350°
2026-05-05 19:33 45.53498 8.75990 2416 ft 181 kts 351°
2026-05-05 19:34 45.54732 8.75649 2168 ft 180 kts 351°
2026-05-05 19:34 45.55911 8.75322 1931 ft 165 kts 351°
2026-05-05 19:34 45.56967 8.75029 1731 ft 149 kts 351°
2026-05-05 19:35 45.58633 8.74569 1369 ft 137 kts 349°
2026-05-05 19:35 45.59551 8.74320 1116 ft 134 kts 349°
2026-05-05 19:35 45.60448 8.74068 942 ft 129 kts 348°
2026-05-05 19:35 45.61336 8.73822 806 ft 130 kts 349°
2026-05-05 19:36 45.62192 8.73577 719 ft 118 kts 349°
2026-05-05 19:36 45.62774 8.73421 730 ft 60 kts 349°
2026-05-05 19:36 45.63159 8.73315 734 ft 53 kts 349°
2026-05-05 19:36 45.63507 8.73215 745 ft 49 kts 345°
2026-05-05 19:37 45.63775 8.72996 748 ft 33 kts 311°
2026-05-05 19:37 45.63848 8.72848 749 ft 11 kts 303°
2026-05-05 19:37 45.63902 8.72801 749 ft 9 kts 347°
2026-05-05 19:37 45.63955 8.72783 751 ft 7 kts 347°
2026-05-05 19:38 45.63974 8.72777 753 ft 0 kts 347°
2026-05-05 19:38 45.63981 8.72775 754 ft 4 kts 347°
2026-05-05 19:38 45.64020 8.72765 755 ft 6 kts 349°
2026-05-05 19:39 45.64072 8.72751 755 ft 8 kts 349°
2026-05-05 19:39 45.64142 8.72732 754 ft 12 kts 349°
2026-05-05 19:39 45.64238 8.72706 759 ft 16 kts 349°
2026-05-05 19:39 45.64358 8.72675 762 ft 18 kts 355°
2026-05-05 19:40 45.64463 8.72649 764 ft 8 kts 315°
2026-05-05 19:40 45.64468 8.72557 765 ft 10 kts 260°
2026-05-05 19:40 45.64457 8.72462 767 ft 9 kts 260°
2026-05-05 19:40 45.64446 8.72386 768 ft 7 kts 258°
2026-05-05 19:41 45.64438 8.72326 769 ft 5 kts 259°
2026-05-05 19:41 45.64441 8.72296 770 ft 1 kts 292°
2026-05-05 19:41 45.64448 8.72286 770 ft 6 kts 319°
2026-05-05 19:41 45.64485 8.72274 771 ft 4 kts 348°
2026-05-05 19:42 45.64504 8.72274 771 ft 2 kts
2026-05-05 19:42 45.64510 8.72273 771 ft 0 kts 352°